Simultaneous Nadir Overpasses (SNOs) Predictions

Prediction of SNOs between GOES-15 and METOP-C Satellite Orbit:

Table of predicted SNOs for the next 14.0 days since TLE Epoch: 9/26/2022
Index Date Time (GOES-15) GOES-15 Lat,Lon METOP-C Lat,Lon Distance(km) Time Diff (sec)
1 09/26/2022 18:18:28 -0.29,-128.03 0.67,-132.33 489.66 80
2 09/27/2022 18:00:27 -0.28,-128.06 -0.43,-127.33 83.24 80
3 09/29/2022 06:19:27 0.29,-128.07 -0.56,-131.93 439.68 80
4 09/30/2022 05:56:07 0.27,-128.09 0.55,-126.94 132.01 80
5 10/01/2022 18:14:56 -0.29,-128.14 0.46,-131.49 381.83 80
6 10/02/2022 17:56:56 -0.27,-128.16 -0.66,-126.50 189.99 80
7 10/04/2022 06:15:55 0.29,-128.17 -0.39,-131.09 333.70 80
8 10/05/2022 05:52:35 0.27,-128.18 0.72,-126.09 237.18 80
9 10/06/2022 18:11:24 -0.29,-128.22 0.28,-130.65 278.05 80
10 10/07/2022 17:53:23 -0.28,-128.23 -0.84,-125.66 293.51 80
11 10/09/2022 06:12:24 0.29,-128.25 -0.14,-130.26 229.43 80
